H1 CPF 2 COD 2023 11 11 2 315 1 galileo213 NONE
H2 1606903 7213 41861 2023 11 10 23 59 42 2023 11 15 23 59 42 900 1 1 0 0 0 1
H5 0.5552
H9
10 0 60263  26982.000000  0  -25288587.423  12136408.578  -9449003.460
10 0 60263  27882.000000  0  -24537095.526  11532657.539 -11875471.359
10 0 60263  28782.000000  0  -23678121.248  10729071.922 -14154210.139
10 0 60263  29682.000000  0  -22745297.821   9720288.590 -16256879.735
10 0 60263  30582.000000  0  -21773160.914   8507096.344 -18157333.203
10 0 60263  31482.000000  0  -20796055.347   7096475.658 -19831941.571
10 0 60263  32382.000000  0  -19847050.983   5501444.913 -21259887.125
10 0 60263  33282.000000  0  -18956901.782   3740717.881 -22423421.564
10 0 60263  34182.000000  0  -18153080.607   1838183.119 -23308085.862
10 0 60263  35082.000000  0  -17458919.980   -177778.513 -23902889.194
10 0 60263  35982.000000  0  -16892885.640  -2275116.940 -24200444.775
10 0 60263  36882.000000  0  -16468005.572  -4419050.947 -24197060.996
10 0 60263  37782.000000  0  -16191472.329  -6573091.993 -23892786.783
10 0 60263  38682.000000  0  -16064431.014  -8700121.918 -23291410.649
10 0 60263  39582.000000  0  -16081959.517 -10763490.967 -22400413.471
10 0 60263  40482.000000  0  -16233241.556 -12728101.946 -21230875.570
10 0 60263  41382.000000  0  -16501927.096 -14561446.759 -19797339.221
10 0 60263  42282.000000  0  -16866668.814 -16234563.039 -18117628.251
10 0 60263  43182.000000  0  -17301817.806 -17722881.062 -16212626.930
10 0 60263  44082.000000  0  -17778256.732 -19006934.576 -14106020.811
10 0 60263  44982.000000  0  -18264344.271 -20072913.368 -11824002.710
10 0 60263  45882.000000  0  -18726941.277 -20913040.363  -9394947.412
10 0 60263  46782.000000  0  -19132486.441 -21525761.526  -6849059.122
10 0 60263  47682.000000  0  -19448087.682 -21915742.650  -4217996.011
10 0 60263  48582.000000  0  -19642594.992 -22093673.240  -1534476.542
10 0 60263  49482.000000  0  -19687621.023 -22075883.655   1168127.529
10 0 60263  50382.000000  0  -19558477.314 -21883787.610   3856206.361
10 0 60263  51282.000000  0  -19234996.724 -21543167.578   6496330.270
10 0 60263  52182.000000  0  -18702216.166 -21083325.567   9055665.719
10 0 60263  53082.000000  0  -17950898.150 -20536125.997  11502383.864
10 0 60263  53982.000000  0  -16977874.696 -19934960.742  13806056.527
10 0 60263  54882.000000  0  -15786202.733 -19313668.884  15938034.639
10 0 60263  55782.000000  0  -14385126.044 -18705445.092  17871804.452
10 0 60263  56682.000000  0  -12789844.849 -18141770.904  19583317.078
10 0 60263  57582.000000  0  -11021100.160 -17651402.452  21051287.302
10 0 60263  58482.000000  0   -9104585.834 -17259446.367  22257457.974
10 0 60263  59382.000000  0   -7070206.612 -16986552.852  23186826.754
10 0 60263  60282.000000  0   -4951205.265 -16848251.202  23827832.431
10 0 60263  61182.000000  0   -2783186.015 -16854448.596  24172498.554
10 0 60263  62082.000000  0    -603064.673 -17009107.873  24216532.625
10 0 60263  62982.000000  0    1552021.843 -17310114.407  23959379.652
10 0 60263  63882.000000  0    3645812.618 -17749336.267  23404229.382
10 0 60263  64782.000000  0    5643992.319 -18312875.828  22557977.141
10 0 60263  65682.000000  0    7515199.929 -18981504.987  21431138.698
10 0 60263  66582.000000  0    9231945.190 -19731270.416  20037720.191
10 0 60263  67482.000000  0   10771404.201 -20534249.924  18395044.643
10 0 60263  68382.000000  0   12116069.363 -21359436.285  16523537.171
10 0 60263  69282.000000  0   13254233.416 -22173720.854  14446471.488
10 0 60263  70182.000000  0   14180292.467 -22942946.158  12189680.784
10 0 60263  71082.000000  0   14894858.603 -23632994.441   9781236.547
10 0 60263  71982.000000  0   15404678.610 -24210878.004   7251099.288
10 0 60263  72882.000000  0   15722361.440 -24645797.081   4630745.521
10 0 60263  73782.000000  0   15865923.024 -24910131.994   1952775.656
10 0 60263  74682.000000  0   15858162.836 -24980338.391   -749492.259
10 0 60263  75582.000000  0   15725891.846 -24837717.367  -3442437.841
10 0 60263  76482.000000  0   15499036.220 -24469036.238  -6092557.467
10 0 60263  77382.000000  0   15209645.008 -23866980.414  -8666881.858
10 0 60263  78282.000000  0   14890833.092 -23030422.113 -11133386.895
10 0 60263  79182.000000  0   14575692.687 -21964497.459 -13461392.473
10 0 60263  80082.000000  0   14296207.659 -20680489.493 -15621944.393
10 0 60263  80982.000000  0   14082204.808 -19195520.740 -17588174.501
10 0 60263  81882.000000  0   13960375.109 -17532064.961 -19335634.614
10 0 60263  82782.000000  0   13953395.637 -15717293.334 -20842600.086
10 0 60263  83682.000000  0   14079179.749 -13782275.541 -22090339.297
10 0 60263  84582.000000  0   14350279.058 -11761060.713 -23063345.777
10 0 60263  85482.000000  0   14773455.930  -9689666.935 -23749530.156
10 0 60263  86382.000000  0   15349439.918  -7605010.848 -24140369.637
99